Plattsburgh, NY

12:52 AM EDT on May 23, 2017 (GMT -0400)
Plattsburgh International

Weather History for KPBG - February, 2013

Change the Weather History Date:

Tuesday, February 5, 2013

  Actual Average Record
Temperature  
Mean Temperature 9 °F 18 °F  
Max Temperature 18 °F 28 °F 53 °F (1991)
Min Temperature -1 °F 8 °F -20 °F (1978)
Degree Days  
Heating Degree Days 56 47  
Month to date heating degree days 254 238  
Since 1 July heating degree days 4324 4614  
Cooling Degree Days 0 0  
Month to date cooling degree days 0  
Year to date cooling degree days 0  
Moisture  
Dew Point -2 °F    
Average Humidity 60    
Maximum Humidity 72    
Minimum Humidity 47    
Precipitation  
Precipitation T in - 0.60 in (2011)
Month to date precipitation T  
Year to date precipitation 0.75  
Sea Level Pressure  
Sea Level Pressure 29.98 in    
Wind  
Wind Speed 4 mph (NNW)    
Max Wind Speed 10 mph    
Max Gust Speed 13 mph    
Visibility 10 miles    
Events      
T = Trace of Precipitation, MM = Missing Value Source: NWS Daily Summary

Daily Weather History Graph

Daily Weather History Graph

Search for Another Location

Airport or City:

Trip Planner

Search our weather history database for the weather conditions in past years. The results will help you decide how hot, cold, wet, or windy it might be!

Date:

Astronomy

Feb. 05, 2013 Rise Set
Actual Time 7:07 AM EST 5:08 PM EST
Civil Twilight 6:37 AM EST 5:39 PM EST
Nautical Twilight 6:02 AM EST 6:14 PM EST
Astronomical Twilight 5:28 AM EST 6:48 PM EST
Moon 2:51 AM EST (2/5) 12:18 PM EST (2/5)
Length of Visible Light 11h 02m
Length of Day
10h 01m
Waning Crescent, 27% of the Moon is Illuminated
Feb 5
Waning Crescent
Feb 10
New
Feb 17
First Quarter
Feb 25
Full
Mar 4
Last Quarter

Hourly Weather History & Observations

Time (EST) Temp. Windchill Dew Point Humidity Pressure Visibility Wind Dir Wind Speed Gust Speed Precip Events Conditions
12:53 AM 5.0 °F -4.1 °F -7.1 °F 58% 29.97 in 10.0 mi WNW 4.6 mph - N/A   Clear
1:53 AM 3.9 °F -6.9 °F -7.1 °F 60% 29.99 in 10.0 mi WNW 5.8 mph - N/A   Clear
2:53 AM 3.0 °F -8.0 °F -8.0 °F 60% 29.99 in 10.0 mi NW 5.8 mph - N/A   Clear
3:53 AM -0.0 °F -9.9 °F -8.0 °F 69% 29.99 in 10.0 mi NNW 4.6 mph - N/A   Clear
4:53 AM -0.0 °F -7.9 °F -8.0 °F 69% 30.01 in 10.0 mi NNW 3.5 mph - N/A   Clear
5:53 AM -0.0 °F -7.9 °F -8.0 °F 69% 30.01 in 10.0 mi NW 3.5 mph - N/A   Clear
6:53 AM -0.0 °F -7.9 °F -9.0 °F 66% 30.03 in 10.0 mi NNW 3.5 mph - N/A   Clear
8:53 AM 6.1 °F - -4.0 °F 63% 30.06 in 10.0 mi Calm Calm - N/A   Clear
9:53 AM 9.0 °F 0.6 °F -2.9 °F 59% 30.06 in 10.0 mi SE 4.6 mph - N/A   Clear
10:53 AM 12.0 °F 4.1 °F -0.9 °F 56% 30.06 in 10.0 mi ESE 4.6 mph - N/A   Clear
11:53 AM 10.9 °F 0.2 °F -0.9 °F 59% 30.03 in 10.0 mi SE 6.9 mph - 0.00 in   Clear
12:53 PM 14.0 °F 6.5 °F 1.0 °F 56% 30.01 in 10.0 mi ESE 4.6 mph - 0.00 in   Clear
1:53 PM 16.0 °F 6.3 °F 1.0 °F 52% 29.99 in 10.0 mi SE 6.9 mph - 0.00 in   Clear
2:53 PM 17.1 °F 7.6 °F 1.9 °F 52% 29.97 in 10.0 mi SE 6.9 mph - N/A   Clear
3:53 PM 18.0 °F - -0.0 °F 45% 29.97 in 10.0 mi Calm Calm - N/A   Partly Cloudy
4:53 PM 17.1 °F 11.7 °F 1.9 °F 52% 29.96 in 10.0 mi NNE 3.5 mph - N/A   Scattered Clouds
5:53 PM 15.1 °F 7.7 °F 3.0 °F 59% 29.95 in 10.0 mi North 4.6 mph - N/A   Partly Cloudy
6:53 PM 16.0 °F 8.8 °F 1.9 °F 54% 29.93 in 10.0 mi NW 4.6 mph - N/A   Scattered Clouds
7:53 PM 14.0 °F 6.5 °F -0.0 °F 54% 29.93 in 10.0 mi WNW 4.6 mph - N/A   Clear
8:53 PM 14.0 °F 6.5 °F 1.0 °F 56% 29.94 in 10.0 mi WNW 4.6 mph - N/A   Scattered Clouds
9:53 PM 14.0 °F - 1.9 °F 59% 29.93 in 10.0 mi Calm Calm - N/A   Overcast
10:53 PM 14.0 °F - 3.9 °F 64% 29.91 in 10.0 mi Calm Calm - N/A   Overcast
11:53 PM 14.0 °F - 3.9 °F 64% 29.90 in 10.0 mi Calm Calm - N/A   Overcast